GLD1774 TJBQ-MDSD

Flight info

Callsign GLD1774
Flight time 1h 21m
Altitude 4000
Route BQN PNA LRN CDO
Aircraft C172/L-SDFGIRY/S

Departure

Time 2026-04-22 19:47
Airport Rafael Hernández International Airport (TJBQ)

Arrival

Time 2026-04-22 21:08
Airport Las Américas International Airport (MDSD)
Time Latitude Longitude Altitude Speed Heading
2026-04-22 19:36 18.49387 -67.13900 224 ft 0 kts 154°
2026-04-22 19:43 18.49367 -67.13938 225 ft 11 kts 234°
2026-04-22 19:44 18.49284 -67.14005 225 ft 17 kts 216°
2026-04-22 19:44 18.49250 -67.14103 227 ft 13 kts 252°
2026-04-22 19:44 18.49221 -67.14200 229 ft 15 kts 253°
2026-04-22 19:44 18.49191 -67.14307 231 ft 15 kts 254°
2026-04-22 19:45 18.49160 -67.14413 233 ft 15 kts 249°
2026-04-22 19:45 18.49123 -67.14516 235 ft 15 kts 241°
2026-04-22 19:45 18.49042 -67.14546 237 ft 14 kts 141°
2026-04-22 19:45 18.49071 -67.14286 231 ft 61 kts 73°
2026-04-22 19:46 18.49247 -67.13743 227 ft 92 kts 71°
2026-04-22 19:46 18.49446 -67.13117 504 ft 82 kts 67°
2026-04-22 19:46 18.49640 -67.12521 584 ft 98 kts 76°
2026-04-22 19:46 18.49813 -67.11819 756 ft 92 kts 70°
2026-04-22 19:47 18.50061 -67.11215 950 ft 90 kts 62°
2026-04-22 19:47 18.50126 -67.10547 1088 ft 105 kts 112°
2026-04-22 19:47 18.49723 -67.10233 1193 ft 116 kts 162°
2026-04-22 19:47 18.48791 -67.10728 1404 ft 119 kts 242°
2026-04-22 19:48 18.48627 -67.11554 1568 ft 117 kts 273°
2026-04-22 19:48 18.48608 -67.12408 1704 ft 112 kts 283°
2026-04-22 19:48 18.49066 -67.12921 1852 ft 94 kts 348°
2026-04-22 19:48 18.49684 -67.13194 2003 ft 99 kts 346°
2026-04-22 19:49 18.50163 -67.13723 2150 ft 115 kts 284°
2026-04-22 19:49 18.50164 -67.14579 2316 ft 117 kts 274°
2026-04-22 19:49 18.50162 -67.15426 2446 ft 115 kts 276°
2026-04-22 19:49 18.50186 -67.16256 2597 ft 113 kts 277°
2026-04-22 19:50 18.50224 -67.17080 2739 ft 112 kts 277°
2026-04-22 19:50 18.50267 -67.17896 2886 ft 111 kts 276°
2026-04-22 19:50 18.50314 -67.18703 3031 ft 109 kts 276°
2026-04-22 19:50 18.50359 -67.19500 3179 ft 109 kts 275°
2026-04-22 19:51 18.50407 -67.20293 3325 ft 108 kts 275°
2026-04-22 19:51 18.50455 -67.21084 3468 ft 108 kts 275°
2026-04-22 19:51 18.50502 -67.21878 3615 ft 109 kts 275°
2026-04-22 19:51 18.50550 -67.22681 3757 ft 110 kts 275°
2026-04-22 19:52 18.50597 -67.23490 3893 ft 111 kts 274°
2026-04-22 19:52 18.50647 -67.24314 3984 ft 118 kts 275°
2026-04-22 19:52 18.50701 -67.25207 4001 ft 126 kts 275°
2026-04-22 19:52 18.50756 -67.26134 3998 ft 128 kts 275°
2026-04-22 19:53 18.50811 -67.27058 3992 ft 125 kts 275°
2026-04-22 19:53 18.50864 -67.27958 3989 ft 122 kts 275°
2026-04-22 19:53 18.50899 -67.28558 3982 ft 120 kts 275°
2026-04-22 19:53 18.50967 -67.29716 3980 ft 119 kts 275°
2026-04-22 19:54 18.51018 -67.30584 3983 ft 118 kts 275°
2026-04-22 19:54 18.51070 -67.31450 3984 ft 119 kts 274°
2026-04-22 19:54 18.51122 -67.32332 3990 ft 122 kts 274°
2026-04-22 19:54 18.51174 -67.33225 3991 ft 123 kts 274°
2026-04-22 19:55 18.51228 -67.34126 3992 ft 123 kts 274°
2026-04-22 19:55 18.51282 -67.35029 3995 ft 124 kts 274°
2026-04-22 19:55 18.51335 -67.35931 3993 ft 123 kts 275°
2026-04-22 19:55 18.51387 -67.36831 3989 ft 123 kts 274°
2026-04-22 19:56 18.51440 -67.37723 3993 ft 122 kts 275°
2026-04-22 19:56 18.51492 -67.38607 3991 ft 122 kts 275°
2026-04-22 19:56 18.51543 -67.39496 3991 ft 122 kts 275°
2026-04-22 19:56 18.51596 -67.40385 3992 ft 122 kts 274°
2026-04-22 19:57 18.51649 -67.41276 3991 ft 122 kts 275°
2026-04-22 19:57 18.51701 -67.42178 3992 ft 123 kts 275°
2026-04-22 19:57 18.51753 -67.43084 3993 ft 124 kts 274°
2026-04-22 19:57 18.51807 -67.43995 3989 ft 124 kts 274°
2026-04-22 19:58 18.51860 -67.44904 3990 ft 124 kts 274°
2026-04-22 19:58 18.51914 -67.45811 3991 ft 124 kts 274°
2026-04-22 19:58 18.51967 -67.46719 3991 ft 124 kts 274°
2026-04-22 19:58 18.52019 -67.47622 3989 ft 123 kts 274°
2026-04-22 19:59 18.52053 -67.48219 3988 ft 123 kts 275°
2026-04-22 20:00 18.52366 -67.53578 3983 ft 123 kts 274°
2026-04-22 20:00 18.52417 -67.54474 3981 ft 123 kts 275°
2026-04-22 20:01 18.52469 -67.55376 3982 ft 124 kts 275°
2026-04-22 20:01 18.52521 -67.56285 3982 ft 125 kts 275°
2026-04-22 20:01 18.52574 -67.57199 3983 ft 125 kts 275°
2026-04-22 20:01 18.52626 -67.58107 3984 ft 126 kts 275°
2026-04-22 20:02 18.52680 -67.59029 3985 ft 126 kts 275°
2026-04-22 20:02 18.52732 -67.59949 3987 ft 126 kts 275°
2026-04-22 20:02 18.52786 -67.60869 3986 ft 125 kts 275°
2026-04-22 20:02 18.52838 -67.61787 3986 ft 125 kts 275°
2026-04-22 20:03 18.52891 -67.62700 3985 ft 125 kts 275°
2026-04-22 20:03 18.52943 -67.63612 3982 ft 124 kts 275°
2026-04-22 20:03 18.52994 -67.64515 3982 ft 123 kts 275°
2026-04-22 20:03 18.53047 -67.65418 3983 ft 123 kts 275°
2026-04-22 20:04 18.53099 -67.66311 3982 ft 124 kts 275°
2026-04-22 20:04 18.53150 -67.67217 3983 ft 124 kts 275°
2026-04-22 20:04 18.53202 -67.68128 3981 ft 124 kts 275°
2026-04-22 20:04 18.53254 -67.69040 3982 ft 125 kts 275°
2026-04-22 20:05 18.53306 -67.69958 3984 ft 126 kts 275°
2026-04-22 20:05 18.53359 -67.70881 3983 ft 126 kts 275°
2026-04-22 20:05 18.53411 -67.71802 3982 ft 125 kts 275°
2026-04-22 20:05 18.53464 -67.72716 3982 ft 125 kts 275°
2026-04-22 20:06 18.53516 -67.73617 3983 ft 125 kts 275°
2026-04-22 20:06 18.53567 -67.74529 3982 ft 124 kts 275°
2026-04-22 20:06 18.53618 -67.75437 3983 ft 124 kts 274°
2026-04-22 20:06 18.53670 -67.76344 3984 ft 125 kts 274°
2026-04-22 20:07 18.53722 -67.77251 3984 ft 124 kts 275°
2026-04-22 20:07 18.53773 -67.78161 3983 ft 125 kts 275°
2026-04-22 20:07 18.53825 -67.79078 3986 ft 126 kts 274°
2026-04-22 20:07 18.53877 -67.80002 3986 ft 126 kts 274°
2026-04-22 20:08 18.53929 -67.80928 3986 ft 127 kts 274°
2026-04-22 20:08 18.53982 -67.81852 3985 ft 126 kts 275°
2026-04-22 20:08 18.54033 -67.82772 3988 ft 126 kts 275°
2026-04-22 20:08 18.54085 -67.83680 3989 ft 125 kts 275°
2026-04-22 20:09 18.54136 -67.84595 3986 ft 124 kts 275°
2026-04-22 20:09 18.54187 -67.85502 3985 ft 124 kts 275°
2026-04-22 20:09 18.54239 -67.86402 3984 ft 123 kts 275°
2026-04-22 20:09 18.54289 -67.87309 3985 ft 124 kts 275°
2026-04-22 20:10 18.54340 -67.88218 3981 ft 124 kts 275°
2026-04-22 20:10 18.54390 -67.89128 3980 ft 124 kts 275°
2026-04-22 20:10 18.54441 -67.90034 3982 ft 125 kts 275°
2026-04-22 20:10 18.54492 -67.90939 3983 ft 125 kts 274°
2026-04-22 20:11 18.54544 -67.91857 3982 ft 125 kts 275°
2026-04-22 20:11 18.54595 -67.92778 3983 ft 126 kts 275°
2026-04-22 20:11 18.54646 -67.93698 3982 ft 125 kts 275°
2026-04-22 20:11 18.54697 -67.94615 3983 ft 125 kts 275°
2026-04-22 20:12 18.54749 -67.95534 3982 ft 126 kts 275°
2026-04-22 20:12 18.54799 -67.96455 3983 ft 126 kts 275°
2026-04-22 20:12 18.54851 -67.97378 3983 ft 126 kts 275°
2026-04-22 20:12 18.54902 -67.98301 3982 ft 126 kts 275°
2026-04-22 20:13 18.54953 -67.99218 3988 ft 125 kts 275°
2026-04-22 20:13 18.55004 -68.00137 3989 ft 125 kts 274°
2026-04-22 20:13 18.55055 -68.01053 3989 ft 125 kts 275°
2026-04-22 20:13 18.55106 -68.01968 3988 ft 125 kts 275°
2026-04-22 20:14 18.55155 -68.02869 3984 ft 124 kts 274°
2026-04-22 20:14 18.55206 -68.03777 3988 ft 124 kts 275°
2026-04-22 20:14 18.55256 -68.04687 3989 ft 125 kts 275°
2026-04-22 20:14 18.55307 -68.05603 3985 ft 125 kts 275°
2026-04-22 20:15 18.55357 -68.06512 3984 ft 124 kts 275°
2026-04-22 20:15 18.55407 -68.07420 3983 ft 124 kts 274°
2026-04-22 20:15 18.55457 -68.08326 3984 ft 123 kts 275°
2026-04-22 20:15 18.55506 -68.09231 3983 ft 123 kts 275°
2026-04-22 20:16 18.55556 -68.10132 3983 ft 123 kts 274°
2026-04-22 20:16 18.55606 -68.11034 3984 ft 123 kts 274°
2026-04-22 20:16 18.55656 -68.11933 3986 ft 123 kts 274°
2026-04-22 20:16 18.55704 -68.12833 3988 ft 124 kts 275°
2026-04-22 20:17 18.55754 -68.13743 3988 ft 125 kts 274°
2026-04-22 20:17 18.55805 -68.14655 3986 ft 125 kts 274°
2026-04-22 20:17 18.55854 -68.15570 3987 ft 125 kts 274°
2026-04-22 20:17 18.55905 -68.16481 3990 ft 125 kts 274°
2026-04-22 20:18 18.55954 -68.17383 3990 ft 125 kts 275°
2026-04-22 20:18 18.56004 -68.18309 3988 ft 125 kts 275°
2026-04-22 20:18 18.56052 -68.19212 3990 ft 124 kts 275°
2026-04-22 20:18 18.56102 -68.20120 3983 ft 123 kts 275°
2026-04-22 20:19 18.56151 -68.21023 3983 ft 124 kts 274°
2026-04-22 20:19 18.56201 -68.21927 3983 ft 124 kts 275°
2026-04-22 20:19 18.56250 -68.22836 3984 ft 124 kts 274°
2026-04-22 20:19 18.56299 -68.23738 3981 ft 123 kts 275°
2026-04-22 20:20 18.56347 -68.24639 3985 ft 123 kts 275°
2026-04-22 20:20 18.56397 -68.25545 3985 ft 124 kts 274°
2026-04-22 20:20 18.56446 -68.26454 3985 ft 124 kts 275°
2026-04-22 20:20 18.56494 -68.27364 3985 ft 124 kts 275°
2026-04-22 20:21 18.56544 -68.28274 3986 ft 124 kts 275°
2026-04-22 20:21 18.56593 -68.29180 3985 ft 124 kts 275°
2026-04-22 20:21 18.56642 -68.30087 3982 ft 123 kts 275°
2026-04-22 20:21 18.56690 -68.30971 3984 ft 123 kts 275°
2026-04-22 20:22 18.56738 -68.31871 3985 ft 123 kts 275°
2026-04-22 20:22 18.56787 -68.32773 3981 ft 122 kts 275°
2026-04-22 20:22 18.56835 -68.33667 3993 ft 123 kts 275°
2026-04-22 20:22 18.56884 -68.34581 3985 ft 125 kts 274°
2026-04-22 20:23 18.56932 -68.35511 3992 ft 129 kts 275°
2026-04-22 20:23 18.56985 -68.36462 3991 ft 131 kts 275°
2026-04-22 20:23 18.56947 -68.37418 3983 ft 130 kts 257°
2026-04-22 20:23 18.56740 -68.38341 3985 ft 129 kts 259°
2026-04-22 20:24 18.56543 -68.39262 3977 ft 128 kts 258°
2026-04-22 20:24 18.56349 -68.40166 3978 ft 126 kts 258°
2026-04-22 20:24 18.56157 -68.41072 3983 ft 128 kts 258°
2026-04-22 20:24 18.55961 -68.41987 3980 ft 128 kts 258°
2026-04-22 20:25 18.55766 -68.42901 3977 ft 127 kts 258°
2026-04-22 20:25 18.55571 -68.43816 3981 ft 128 kts 258°
2026-04-22 20:25 18.55377 -68.44725 3978 ft 127 kts 258°
2026-04-22 20:25 18.55184 -68.45629 3977 ft 126 kts 258°
2026-04-22 20:26 18.54992 -68.46528 3979 ft 125 kts 258°
2026-04-22 20:26 18.54804 -68.47411 3980 ft 125 kts 258°
2026-04-22 20:26 18.54613 -68.48305 3978 ft 125 kts 258°
2026-04-22 20:26 18.54422 -68.49197 3977 ft 125 kts 259°
2026-04-22 20:27 18.54232 -68.50085 3975 ft 124 kts 258°
2026-04-22 20:27 18.54042 -68.50977 3984 ft 125 kts 258°
2026-04-22 20:27 18.53850 -68.51873 3979 ft 125 kts 258°
2026-04-22 20:27 18.53660 -68.52765 3981 ft 126 kts 258°
2026-04-22 20:28 18.53467 -68.53666 3982 ft 126 kts 259°
2026-04-22 20:28 18.53274 -68.54569 3983 ft 126 kts 258°
2026-04-22 20:28 18.53081 -68.55473 3980 ft 127 kts 258°
2026-04-22 20:28 18.52886 -68.56381 3979 ft 128 kts 259°
2026-04-22 20:29 18.52691 -68.57293 3982 ft 126 kts 258°
2026-04-22 20:29 18.52498 -68.58194 3984 ft 127 kts 259°
2026-04-22 20:29 18.52303 -68.59101 3984 ft 126 kts 258°
2026-04-22 20:29 18.52107 -68.60015 3977 ft 129 kts 260°
2026-04-22 20:30 18.51911 -68.60932 3981 ft 128 kts 258°
2026-04-22 20:30 18.51713 -68.61856 3976 ft 130 kts 259°
2026-04-22 20:30 18.51517 -68.62775 3978 ft 127 kts 258°
2026-04-22 20:30 18.51322 -68.63677 3981 ft 126 kts 259°
2026-04-22 20:31 18.51130 -68.64566 3972 ft 123 kts 259°
2026-04-22 20:31 18.50945 -68.65438 3973 ft 124 kts 259°
2026-04-22 20:31 18.50754 -68.66328 3973 ft 125 kts 259°
2026-04-22 20:31 18.50560 -68.67230 3974 ft 127 kts 260°
2026-04-22 20:32 18.50364 -68.68143 3973 ft 128 kts 258°
2026-04-22 20:32 18.50168 -68.69054 3977 ft 126 kts 259°
2026-04-22 20:32 18.49974 -68.69956 3977 ft 127 kts 258°
2026-04-22 20:32 18.49779 -68.70867 3976 ft 127 kts 260°
2026-04-22 20:33 18.49580 -68.71790 3971 ft 130 kts 259°
2026-04-22 20:33 18.49381 -68.72717 3972 ft 130 kts 259°
2026-04-22 20:33 18.49182 -68.73646 3970 ft 129 kts 258°
2026-04-22 20:33 18.48982 -68.74570 3970 ft 131 kts 259°
2026-04-22 20:34 18.48783 -68.75497 3968 ft 128 kts 258°
2026-04-22 20:34 18.48587 -68.76406 3962 ft 127 kts 259°
2026-04-22 20:34 18.48390 -68.77320 3955 ft 128 kts 258°
2026-04-22 20:34 18.48195 -68.78227 3962 ft 127 kts 258°
2026-04-22 20:35 18.48001 -68.79131 3951 ft 126 kts 259°
2026-04-22 20:35 18.47804 -68.80038 3958 ft 127 kts 259°
2026-04-22 20:35 18.47609 -68.80949 3952 ft 127 kts 259°
2026-04-22 20:35 18.47414 -68.81850 3957 ft 128 kts 260°
2026-04-22 20:36 18.47218 -68.82762 3959 ft 128 kts 259°
2026-04-22 20:36 18.47020 -68.83679 3954 ft 128 kts 259°
2026-04-22 20:36 18.46825 -68.84585 3960 ft 126 kts 258°
2026-04-22 20:36 18.46630 -68.85491 3961 ft 127 kts 260°
2026-04-22 20:37 18.46432 -68.86407 3960 ft 128 kts 258°
2026-04-22 20:37 18.46234 -68.87327 3962 ft 128 kts 259°
2026-04-22 20:37 18.46037 -68.88238 3959 ft 128 kts 259°
2026-04-22 20:37 18.45840 -68.89149 3960 ft 128 kts 259°
2026-04-22 20:38 18.45643 -68.90060 3958 ft 127 kts 259°
2026-04-22 20:38 18.45446 -68.90969 3959 ft 127 kts 259°
2026-04-22 20:38 18.45380 -68.91896 3959 ft 128 kts 272°
2026-04-22 20:38 18.45360 -68.92821 3960 ft 127 kts 270°
2026-04-22 20:39 18.45338 -68.93752 3958 ft 127 kts 271°
2026-04-22 20:39 18.45315 -68.94683 3957 ft 127 kts 270°
2026-04-22 20:39 18.45292 -68.95610 3955 ft 126 kts 270°
2026-04-22 20:39 18.45269 -68.96532 3956 ft 126 kts 270°
2026-04-22 20:40 18.45247 -68.97448 3956 ft 125 kts 271°
2026-04-22 20:40 18.45224 -68.98367 3956 ft 126 kts 270°
2026-04-22 20:40 18.45201 -68.99293 3954 ft 126 kts 271°
2026-04-22 20:40 18.45179 -69.00209 3951 ft 124 kts 270°
2026-04-22 20:41 18.45156 -69.01121 3956 ft 124 kts 271°
2026-04-22 20:41 18.45133 -69.02033 3955 ft 124 kts 271°
2026-04-22 20:41 18.45111 -69.02938 3958 ft 123 kts 271°
2026-04-22 20:41 18.45088 -69.03846 3955 ft 124 kts 271°
2026-04-22 20:42 18.45066 -69.04745 3959 ft 123 kts 270°
2026-04-22 20:42 18.45043 -69.05650 3957 ft 124 kts 271°
2026-04-22 20:42 18.45021 -69.06554 3957 ft 123 kts 271°
2026-04-22 20:42 18.44998 -69.07460 3959 ft 124 kts 271°
2026-04-22 20:43 18.44975 -69.08361 3960 ft 125 kts 270°
2026-04-22 20:43 18.44953 -69.09279 3968 ft 126 kts 270°
2026-04-22 20:43 18.44931 -69.10205 3974 ft 128 kts 270°
2026-04-22 20:43 18.44905 -69.11150 3975 ft 129 kts 270°
2026-04-22 20:44 18.44879 -69.12104 3971 ft 131 kts 270°
2026-04-22 20:44 18.44858 -69.13059 3969 ft 130 kts 270°
2026-04-22 20:44 18.44832 -69.14005 3964 ft 128 kts 269°
2026-04-22 20:44 18.44808 -69.14938 3967 ft 127 kts 270°
2026-04-22 20:45 18.44785 -69.15870 3968 ft 128 kts 271°
2026-04-22 20:45 18.44761 -69.16802 3965 ft 127 kts 270°
2026-04-22 20:45 18.44738 -69.17727 3966 ft 126 kts 271°
2026-04-22 20:45 18.44713 -69.18652 3967 ft 126 kts 271°
2026-04-22 20:46 18.44667 -69.20474 3971 ft 124 kts 271°
2026-04-22 20:46 18.44643 -69.21381 3971 ft 124 kts 271°
2026-04-22 20:46 18.44620 -69.22290 3969 ft 124 kts 271°
2026-04-22 20:47 18.44596 -69.23200 3975 ft 124 kts 271°
2026-04-22 20:47 18.44572 -69.24108 3976 ft 124 kts 271°
2026-04-22 20:47 18.44556 -69.24711 3976 ft 125 kts 271°
2026-04-22 20:47 18.44525 -69.25943 3980 ft 126 kts 271°
2026-04-22 20:48 18.44501 -69.26859 3980 ft 126 kts 271°
2026-04-22 20:48 18.44477 -69.27783 3981 ft 127 kts 271°
2026-04-22 20:48 18.44452 -69.28711 3981 ft 127 kts 271°
2026-04-22 20:48 18.44428 -69.29639 3986 ft 127 kts 271°
2026-04-22 20:49 18.44412 -69.30269 3983 ft 127 kts 271°
2026-04-22 20:49 18.44387 -69.31204 3983 ft 128 kts 270°
2026-04-22 20:49 18.44362 -69.32130 3981 ft 128 kts 271°
2026-04-22 20:49 18.44337 -69.33064 3981 ft 128 kts 271°
2026-04-22 20:50 18.44312 -69.33998 3982 ft 128 kts 271°
2026-04-22 20:50 18.44288 -69.34929 3981 ft 127 kts 270°
2026-04-22 20:50 18.44263 -69.35856 3979 ft 126 kts 270°
2026-04-22 20:50 18.44238 -69.36776 3981 ft 126 kts 271°
2026-04-22 20:51 18.44214 -69.37693 3969 ft 124 kts 271°
2026-04-22 20:51 18.44189 -69.38601 3970 ft 124 kts 271°
2026-04-22 20:51 18.44165 -69.39516 3967 ft 126 kts 270°
2026-04-22 20:51 18.44141 -69.40460 3861 ft 131 kts 271°
2026-04-22 20:52 18.44115 -69.41426 3769 ft 133 kts 270°
2026-04-22 20:52 18.44088 -69.42405 3675 ft 134 kts 270°
2026-04-22 20:52 18.44061 -69.43396 3578 ft 136 kts 271°
2026-04-22 20:52 18.44034 -69.44390 3477 ft 136 kts 271°
2026-04-22 20:53 18.44007 -69.45388 3378 ft 136 kts 271°
2026-04-22 20:53 18.43980 -69.46380 3281 ft 135 kts 270°
2026-04-22 20:53 18.43953 -69.47371 3187 ft 136 kts 270°
2026-04-22 20:53 18.43926 -69.48371 3088 ft 137 kts 271°
2026-04-22 20:54 18.43899 -69.49360 2992 ft 137 kts 271°
2026-04-22 20:54 18.43871 -69.50363 2898 ft 138 kts 270°
2026-04-22 20:54 18.43843 -69.51380 2795 ft 139 kts 270°
2026-04-22 20:54 18.43815 -69.52393 2704 ft 139 kts 270°
2026-04-22 20:55 18.43787 -69.53414 2598 ft 140 kts 269°
2026-04-22 20:55 18.43758 -69.54442 2507 ft 141 kts 269°
2026-04-22 20:55 18.43730 -69.55475 2405 ft 141 kts 269°
2026-04-22 20:55 18.43702 -69.56515 2311 ft 143 kts 267°
2026-04-22 20:56 18.43671 -69.57571 2209 ft 144 kts 268°
2026-04-22 20:56 18.43640 -69.58619 2110 ft 142 kts 266°
2026-04-22 20:56 18.43610 -69.59649 2001 ft 138 kts 268°
2026-04-22 20:56 18.43582 -69.60645 1969 ft 133 kts 268°
2026-04-22 20:57 18.43555 -69.61599 1965 ft 129 kts 268°
2026-04-22 20:57 18.43527 -69.62535 1954 ft 129 kts 267°
2026-04-22 20:57 18.43500 -69.63464 1970 ft 126 kts 268°
2026-04-22 20:57 18.43472 -69.64397 1966 ft 128 kts 266°
2026-04-22 20:58 18.43441 -69.65333 1965 ft 128 kts 267°
2026-04-22 20:58 18.43589 -69.66230 1963 ft 127 kts 308°
2026-04-22 20:58 18.44340 -69.66604 1971 ft 121 kts 359°
2026-04-22 20:58 18.45172 -69.66743 1969 ft 122 kts 356°
2026-04-22 20:59 18.46017 -69.66862 1977 ft 123 kts 359°
2026-04-22 20:59 18.46858 -69.66911 1974 ft 120 kts
2026-04-22 20:59 18.47697 -69.66964 1973 ft 122 kts
2026-04-22 20:59 18.48538 -69.67015 1977 ft 121 kts
2026-04-22 21:00 18.49377 -69.67061 1972 ft 120 kts
2026-04-22 21:00 18.50215 -69.67107 1971 ft 121 kts
2026-04-22 21:00 18.51072 -69.67154 1974 ft 126 kts
2026-04-22 21:00 18.51950 -69.67204 1973 ft 126 kts
2026-04-22 21:01 18.52801 -69.67253 1974 ft 119 kts
2026-04-22 21:01 18.53602 -69.67355 1967 ft 112 kts 357°
2026-04-22 21:01 18.54366 -69.67458 1959 ft 109 kts 357°
2026-04-22 21:01 18.55101 -69.67550 1958 ft 105 kts 356°
2026-04-22 21:02 18.55837 -69.67651 1976 ft 110 kts 352°
2026-04-22 21:02 18.56411 -69.68165 1959 ft 113 kts 287°
2026-04-22 21:02 18.56223 -69.68884 1963 ft 102 kts 213°
2026-04-22 21:02 18.55659 -69.69262 1957 ft 92 kts 207°
2026-04-22 21:03 18.55196 -69.69692 1953 ft 97 kts 253°
2026-04-22 21:03 18.54981 -69.70321 1968 ft 92 kts 205°
2026-04-22 21:03 18.54371 -69.70562 1906 ft 100 kts 202°
2026-04-22 21:03 18.53704 -69.70838 1817 ft 107 kts 192°
2026-04-22 21:04 18.52975 -69.70880 1686 ft 103 kts 159°
2026-04-22 21:04 18.52334 -69.70645 1575 ft 93 kts 158°
2026-04-22 21:04 18.51741 -69.70411 1443 ft 89 kts 155°
2026-04-22 21:04 18.51184 -69.70176 1308 ft 84 kts 153°
2026-04-22 21:05 18.50666 -69.69959 1188 ft 76 kts 153°
2026-04-22 21:05 18.50180 -69.69742 1076 ft 79 kts 154°
2026-04-22 21:05 18.49659 -69.69518 961 ft 80 kts 153°
2026-04-22 21:05 18.49150 -69.69290 843 ft 79 kts 153°
2026-04-22 21:06 18.48664 -69.69076 708 ft 71 kts 151°
2026-04-22 21:06 18.48197 -69.68868 590 ft 75 kts 153°
2026-04-22 21:06 18.47714 -69.68653 574 ft 78 kts 148°
2026-04-22 21:06 18.47206 -69.68429 563 ft 78 kts 149°
2026-04-22 21:07 18.46753 -69.68231 510 ft 75 kts 159°
2026-04-22 21:07 18.46218 -69.68098 363 ft 81 kts 156°
2026-04-22 21:07 18.45682 -69.67890 359 ft 84 kts 154°
2026-04-22 21:07 18.45106 -69.67670 291 ft 92 kts 158°
2026-04-22 21:08 18.44519 -69.67472 112 ft 80 kts 158°
2026-04-22 21:08 18.44066 -69.67285 53 ft 51 kts 158°
2026-04-22 21:08 18.43848 -69.67210 53 ft 27 kts 163°
2026-04-22 21:08 18.43703 -69.67178 55 ft 16 kts 189°